[[{"header":{"parameterUnit":"m.s-1","parameterCategory":2,"la1":30.2991,"la2":30.254,"lo1":-89.0895,"lo2":-89.0444,"dy":0.0017,"dx":0.0017,"nx":28,"ny":28,"refTime":"2023-09-14T21:00:00:Z","depth":"0","parameterNumber":2,"parameterNumberName":"U-component_of_CURRENTS"},"data":[0,0,0,0,0,0,0,0,0,0,0,0,0,0,0,0,0,0,0,0,0,0,0,0,0,0,0,0,0,0,0,0,0,0,0,0,0,0,0,0,0,0,0,0,0,0,0,0,0,0,0,0,0,0,0,0,0,0,0.2198,0.2198,0,0.2177,0.2177,0.2177,0.2152,0.2152,0.2151,0.2151,0.213,0.213,0.213,0,0,0,0,0,0,0,0,0,0,0,0,0,0.2251,0.225,0.2198,0.2198,0.2197,0.2178,0.2177,0.2177,0.2152,0.2152,0.2151,0.2151,0.213,0.213,0.213,0,0,0,0,0,0,0,0,0,0,0,0,0,0.2229,0.225,0.2198,0.2183,0.2181,0.2178,0.2177,0.2177,0.2152,0.2152,0.2151,0.2151,0.213,0.213,0.213,0.214,0,0,0.2129,0.2129,0,0,0,0,0,0,0,0,0.2231,0.2228,0.2185,0.2184,0.2182,0.2167,0.2188,0.2165,0.2153,0.2164,0.2151,0.215,0.2143,0.2141,0.2139,0.2139,0.2138,0.2129,0.2129,0.2129,0.2129,0,0,0,0,0,0,0,0.2232,0.2228,0.219,0.2185,0.2183,0.2189,0.2185,0.2184,0.2157,0.2163,0.2161,0.2158,0.2142,0.214,0.2139,0.2138,0.2129,0.2129,0.2129,0.2129,0.2132,0.2132,0,0,0,0,0,0,0.2233,0.223,0.2191,0.2189,0.2205,0.2188,0.2184,0.2172,0.2157,0.2154,0.2159,0.2157,0.214,0.2139,0.2138,0.2151,0.2129,0.2129,0.2128,0.2132,0.2132,0.2132,0,0,0,0,0,0,0.2234,0.2229,0.2192,0.221,0.2205,0.2188,0.2175,0.2172,0.2171,0.2154,0.2151,0.2161,0.214,0.2138,0.2135,0.2149,0.2128,0.2128,0.2131,0.2132,0.2132,0.2176,0,0,0,0,0,0,0.2235,0.223,0.2233,0.2209,0.2204,0.2197,0.2176,0.2172,0.217,0.2168,0.2155,0.2152,0.2139,0.2135,0.2135,0.2149,0.2128,0.2131,0.2132,0.2132,0.2174,0.2177,0.218,0,0,0,0,0,0.2237,0.2241,0.2233,0.2229,0.2204,0.2197,0.2196,0.2182,0.2171,0.2177,0.2161,0.2152,0.2138,0.2135,0.2134,0.2149,0.2131,0.2131,0.2132,0.2172,0.2177,0.218,0,0,0,0,0,0,0.2278,0.2238,0.2228,0.2223,0.2215,0.2193,0.2201,0.2187,0.2179,0.2178,0.2157,0.2154,0.2157,0.2145,0.2143,0.215,0.2133,0.2133,0.2164,0.2168,0.2171,0.2208,0.2128,0,0,0,0,0,0.2285,0.2272,0.2245,0.2247,0.2241,0.2222,0.2221,0.2209,0.2195,0.2191,0.2177,0.2164,0.2159,0.2157,0.215,0.2156,0.2216,0.2163,0.2167,0.217,0.2199,0.2342,0.2364,0.2134,0.2134,0.2134,0,0,0.2307,0.2282,0.2279,0.2255,0.2246,0.2245,0.222,0.222,0.2222,0.2192,0.2192,0.2178,0.2163,0.2167,0.2168,0.2159,0.2255,0.217,0.2173,0.2201,0.2346,0.2369,0.2389,0.2135,0.2134,0.2134,0,0,0.2338,0.2316,0.2315,0.2304,0.2288,0.2274,0.2274,0.2252,0.2246,0.2244,0.2221,0.2223,0.2205,0.2205,0.2201,0.2221,0.227,0.2206,0.2255,0.2394,0.2416,0.2436,0.2503,0.2529,0.2207,0.2207,0.2207,0,0.237,0.2354,0.2321,0.2316,0.2314,0.2286,0.2295,0.2286,0.2266,0.2271,0.225,0.2252,0.2231,0.2256,0.2253,0.2234,0.2306,0.2241,0.2405,0.2426,0.2446,0.251,0.2538,0.2209,0.2209,0.2209,0.2209,0,0.2396,0.2386,0.2388,0.2366,0.2362,0.2366,0.2343,0.2342,0.2327,0.232,0.2339,0.2321,0.2332,0.2312,0.2287,0.2392,0.2393,0.2399,0.2407,0.2473,0.2534,0.2563,0.2212,0.2212,0.2211,0.221,0,0,0.2459,0.2415,0.2414,0.2412,0.2387,0.2387,0.2391,0.2393,0.2412,0.2399,0.244,0.242,0.2425,0.2422,0.2398,0.2494,0.2662,0.2509,0.2515,0.2594,0.2948,0.2862,0.2885,0.2724,0.273,0.2734,0.2921,0,0.2494,0.2489,0.2459,0.2471,0.247,0.2445,0.2453,0.2453,0.2453,0.2484,0.2486,0.2514,0.2462,0.248,0.257,0.2644,0.2747,0.2609,0.2855,0.2861,0.2796,0.2919,0.2733,0.2879,0.2949,0.2954,0.2957,0,0.2528,0.2516,0.2525,0.2514,0.2514,0.2521,0.2538,0.2543,0.2571,0.2578,0.2615,0.2621,0.2708,0.268,0.2883,0.2808,0.2895,0.2952,0.2961,0.2898,0.2832,0.283,0.2929,0.2793,0.3001,0.2998,0.2995,0,0.2575,0.2564,0.2572,0.2568,0.2553,0.2564,0.2565,0.2578,0.2593,0.2657,0.2694,0.2783,0.284,0.299,0.3051,0.302,0.3288,0.3261,0.3261,0.3252,0.3149,0.3122,0.3168,0.3466,0.3465,0.3465,0.3464,0,0.2611,0.2618,0.2596,0.2599,0.2623,0.2606,0.2642,0.265,0.2688,0.2719,0.2758,0.2811,0.2941,0.306,0.314,0.3274,0.3372,0.3312,0.3328,0.3147,0.3119,0.3038,0.2967,0.3472,0.347,0.3469,0.3467,0,0.2645,0.2631,0.2641,0.2636,0.2639,0.2657,0.2669,0.2691,0.2733,0.2786,0.2818,0.2897,0.3038,0.3131,0.3351,0.3372,0.3399,0.3533,0.3262,0.3243,0.3098,0.3035,0.3055,0.298,0.3598,0.3598,0.3598,0,0.2648,0.2657,0.2665,0.2667,0.2662,0.2682,0.2687,0.2711,0.2727,0.2817,0.2845,0.2982,0.303,0.3272,0.3347,0.3487,0.3373,0.3402,0.3312,0.3102,0.3048,0.2923,0.2849,0.3176,0.3172,0.3169,0.3167,0,0.2647,0.2659,0.2659,0.2669,0.2676,0.2686,0.2695,0.2713,0.2741,0.2785,0.2846,0.2903,0.3071,0.3101,0.3246,0.3309,0.3181,0.3342,0.3237,0.2827,0.2591,0.2517,0.2987,0.3139,0.3142,0.3144,0.3145,0.3146,0.263,0.2636,0.2633,0.2639,0.2651,0.2647,0.2625,0.2641,0.265,0.2661,0.2779,0.2816,0.2862,0.3022,0.307,0.2974,0.3017,0.2886,0.2861,0.2779,0.2606,0.2976,0.3071,0.3074,0.3076,0.3077,0.3079,0,0.2561,0.257,0.2589,0.2571,0.2558,0.2587,0.2582,0.2534,0.2496,0.2572,0.2601,0.2607,0.2585,0.2627,0.2564,0.2487,0.2416,0.2415,0.2193,0.2177,0.2611,0.2485,0.2321,0.2322,0.2322,0.2322,0.2322,0.2322,0.2514,0.25,0.2513,0.2457,0.2453,0.2382,0.2359,0.2314,0.233,0.2274,0.2268,0.2312,0.2271,0.2166,0.203,0.2015,0.1871,0.1779,0.1839,0.2099,0.214,0.2178,0.2045,0.1791,0.1791,0.1288,0.1284,0.1281]},{"header":{"parameterUnit":"m.s-1","parameterCategory":2,"la1":30.2991,"la2":30.254,"lo1":-89.0895,"lo2":-89.0444,"dy":0.0017,"dx":0.0017,"nx":28,"ny":28,"refTime":"2023-09-14T21:00:00:Z","depth":"0","parameterNumber":3,"parameterNumberName":"V-component_of_CURRENTS"},"data":[0,0,0,0,0,0,0,0,0,0,0,0,0,0,0,0,0,0,0,0,0,0,0,0,0,0,0,0,0,0,0,0,0,0,0,0,0,0,0,0,0,0,0,0,0,0,0,0,0,0,0,0,0,0,0,0,0,0,-0.0062,-0.0063,0,-0.009,-0.009,-0.0091,-0.0099,-0.0099,-0.0098,-0.0098,-0.0135,-0.0136,-0.0137,0,0,0,0,0,0,0,0,0,0,0,0,0,-0.0034,-0.0035,-0.0062,-0.0063,-0.0063,-0.009,-0.009,-0.0091,-0.0099,-0.0099,-0.0098,-0.0098,-0.0135,-0.0136,-0.0137,0,0,0,0,0,0,0,0,0,0,0,0,0,-0.0054,-0.0035,-0.0062,-0.0069,-0.007,-0.009,-0.009,-0.0091,-0.0099,-0.0099,-0.0098,-0.0098,-0.0134,-0.0136,-0.0138,-0.0156,0,0,-0.0143,-0.0144,0,0,0,0,0,0,0,0,-0.0052,-0.0055,-0.0068,-0.0069,-0.007,-0.009,-0.0094,-0.0113,-0.0099,-0.0089,-0.0098,-0.0098,-0.012,-0.0123,-0.0131,-0.0158,-0.0159,-0.0143,-0.0144,-0.0145,-0.0146,0,0,0,0,0,0,0,-0.0051,-0.0054,-0.0074,-0.0068,-0.0069,-0.0077,-0.0079,-0.0098,-0.0107,-0.009,-0.009,-0.0092,-0.0121,-0.0129,-0.0131,-0.016,-0.0143,-0.0145,-0.0146,-0.0147,-0.0214,-0.0215,0,0,0,0,0,0,-0.0045,-0.0052,-0.0073,-0.0075,-0.0059,-0.0078,-0.008,-0.0085,-0.0107,-0.011,-0.0092,-0.0092,-0.0126,-0.0129,-0.0133,-0.014,-0.0145,-0.0147,-0.0148,-0.0213,-0.0214,-0.0215,0,0,0,0,0,0,-0.0045,-0.0047,-0.0072,-0.0063,-0.0067,-0.0078,-0.0083,-0.0085,-0.0091,-0.0108,-0.0111,-0.0095,-0.0126,-0.013,-0.0152,-0.0142,-0.0148,-0.0149,-0.0212,-0.0214,-0.0214,-0.0164,0,0,0,0,0,0,-0.0044,-0.0047,-0.005,-0.0063,-0.0067,-0.0082,-0.0083,-0.0086,-0.0092,-0.0092,-0.0112,-0.0115,-0.0126,-0.0149,-0.0154,-0.0145,-0.0151,-0.0212,-0.0213,-0.0214,-0.0165,-0.0164,-0.0162,0,0,0,0,0,-0.0043,-0.0044,-0.005,-0.0052,-0.007,-0.0082,-0.0085,-0.0093,-0.0092,-0.0096,-0.0113,-0.0115,-0.0161,-0.0152,-0.0157,-0.0147,-0.0211,-0.0212,-0.0214,-0.0166,-0.0164,-0.0162,0,0,0,0,0,0,-0.0034,-0.0045,-0.0052,-0.0057,-0.0069,-0.0083,-0.0085,-0.0092,-0.0108,-0.0108,-0.0124,-0.0129,-0.0144,-0.0162,-0.0151,-0.0175,-0.0186,-0.0189,-0.0148,-0.0147,-0.0145,-0.0088,-0.0152,0,0,0,0,0,-0.0034,-0.0039,-0.0052,-0.0058,-0.006,-0.0074,-0.0079,-0.0086,-0.01,-0.0106,-0.0123,-0.0142,-0.0156,-0.0163,-0.0184,-0.0197,-0.0153,-0.0197,-0.0196,-0.0194,-0.0154,-0.0066,-0.005,-0.022,-0.022,-0.022,0,0,-0.0033,-0.0039,-0.0044,-0.0056,-0.0064,-0.0063,-0.0076,-0.0083,-0.0081,-0.0109,-0.0117,-0.0139,-0.0161,-0.0173,-0.0181,-0.0184,-0.0134,-0.0196,-0.0194,-0.0154,-0.0066,-0.0048,-0.0033,-0.0221,-0.0221,-0.0221,0,0,-0.0025,-0.0038,-0.0035,-0.0043,-0.0052,-0.0059,-0.0059,-0.0076,-0.008,-0.0097,-0.0111,-0.0117,-0.0159,-0.0154,-0.0159,-0.0163,-0.013,-0.0191,-0.0129,-0.0045,-0.0028,-0.0013,0.0035,0.0054,-0.0186,-0.0186,-0.0186,0,-0.002,-0.002,-0.0037,-0.0033,-0.003,-0.0052,-0.0042,-0.0054,-0.0078,-0.0064,-0.0095,-0.0103,-0.0136,-0.0106,-0.0117,-0.0152,-0.0109,-0.013,-0.0036,-0.002,-0.0004,0.0041,0.0062,-0.0184,-0.0184,-0.0185,-0.0185,0,-0.0009,-0.0007,-0.0005,-0.0004,-0.0006,-0.0004,-0.0015,-0.0018,-0.0029,-0.0029,-0.0014,-0.0047,-0.0034,-0.0067,-0.0095,-0.0018,-0.0026,-0.0041,-0.0024,0.0017,0.006,0.0081,-0.0181,-0.0182,-0.0182,-0.0183,0,0,0.0013,0.0007,0.001,0.0024,0.0013,0.002,0.0026,0.0044,0.0084,0.005,0.0115,0.0068,0.0074,0.0069,0.0037,0.0092,0.0199,0.0072,0.0076,0.0148,0.0378,0.0322,0.0339,0.0214,0.0219,0.0222,0.0356,0,0.0035,0.0055,0.0044,0.0071,0.0088,0.0078,0.0097,0.011,0.0119,0.0169,0.0164,0.0197,0.0118,0.0138,0.0181,0.0212,0.0262,0.0164,0.0304,0.0308,0.0279,0.0365,0.0323,0.0436,0.0377,0.038,0.0383,0,0.0061,0.0073,0.0104,0.0136,0.0145,0.0159,0.0218,0.0231,0.0286,0.0302,0.0345,0.0346,0.0412,0.0339,0.0447,0.0394,0.0396,0.0405,0.041,0.0371,0.0294,0.0388,0.0477,0.0348,0.0415,0.0413,0.041,0,0.0106,0.0124,0.0156,0.0161,0.0186,0.0214,0.0235,0.0282,0.0325,0.041,0.0472,0.053,0.0589,0.0625,0.0606,0.0559,0.073,0.0667,0.0614,0.0608,0.0608,0.0595,0.0623,0.076,0.0759,0.0759,0.0759,0,0.0145,0.0173,0.0183,0.0204,0.0262,0.0267,0.0348,0.0375,0.0456,0.0545,0.0556,0.065,0.0672,0.0742,0.0706,0.0739,0.0815,0.0669,0.0665,0.0613,0.06,0.0514,0.0449,0.0764,0.0763,0.0762,0.0761,0,0.0189,0.0193,0.0234,0.0268,0.0284,0.0329,0.0401,0.0469,0.0536,0.0665,0.0706,0.0797,0.0898,0.0886,0.096,0.0877,0.0842,0.0872,0.0785,0.0768,0.0575,0.0514,0.0614,0.0574,0.0871,0.0871,0.0871,0,0.0213,0.0238,0.0277,0.0307,0.0324,0.0387,0.0441,0.0503,0.0583,0.0752,0.0832,0.0958,0.105,0.112,0.1029,0.0997,0.0873,0.0884,0.0775,0.0601,0.0532,0.0499,0.0456,0.0784,0.0783,0.0783,0.0782,0,0.0259,0.027,0.0299,0.0356,0.041,0.0478,0.0561,0.0636,0.0742,0.0862,0.1034,0.1128,0.118,0.1158,0.1073,0.1001,0.0793,0.0865,0.0745,0.0533,0.0451,0.0396,0.0622,0.0776,0.0776,0.0777,0.0777,0.0777,0.029,0.0315,0.0351,0.0407,0.0472,0.0568,0.0643,0.0751,0.0893,0.1084,0.116,0.1324,0.1235,0.1135,0.1011,0.0723,0.0764,0.0604,0.0566,0.0565,0.0469,0.0655,0.0754,0.0754,0.0754,0.0755,0.0755,0,0.0319,0.0348,0.0402,0.0476,0.0556,0.0584,0.0725,0.0818,0.0991,0.1173,0.1318,0.1389,0.1214,0.1022,0.0662,0.0454,0.0387,0.0335,0.0276,0.0263,0.0487,0.0416,0.0374,0.0374,0.0374,0.0374,0.0375,0.0375,0.034,0.0384,0.041,0.0532,0.0595,0.0718,0.0805,0.0946,0.1093,0.1312,0.1442,0.1533,0.1367,0.0714,0.0251,0.0154,0.003,0.0014,-0.0023,0.008,0.0101,0.0121,0.0038,-0.0082,-0.0083,-0.0245,-0.0247,-0.0249]}],[{"header":{"parameterUnit":"m.s-1","parameterCategory":2,"la1":30.2991,"la2":30.254,"lo1":-89.0895,"lo2":-89.0444,"dy":0.0017,"dx":0.0017,"nx":28,"ny":28,"refTime":"2023-09-14T21:00:00:Z","depth":"2","parameterNumber":2,"parameterNumberName":"U-component_of_CURRENTS"},"data":[0,0,0,0,0,0,0,0,0,0,0,0,0,0,0,0,0,0,0,0,0,0,0,0,0,0,0,0,0,0,0,0,0,0,0,0,0,0,0,0,0,0,0,0,0,0,0,0,0,0,0,0,0,0,0,0,0,0,0.1675,0.1675,0,0.1696,0.1696,0.1697,0.1725,0.1726,0.1726,0.1727,0.1663,0.1661,0.1659,0,0,0,0,0,0,0,0,0,0,0,0,0,0.1572,0.1574,0.1675,0.1675,0.1676,0.1696,0.1696,0.1697,0.1725,0.1726,0.1726,0.1727,0.1664,0.1662,0.1659,0,0,0,0,0,0,0,0,0,0,0,0,0,0.1607,0.1575,0.1675,0.1692,0.1694,0.1696,0.1696,0.1697,0.1725,0.1726,0.1727,0.1727,0.1665,0.1662,0.1659,0.1626,0,0,0.1649,0.1648,0,0,0,0,0,0,0,0,0.1605,0.1611,0.1689,0.1691,0.1693,0.1708,0.1637,0.1669,0.1725,0.1714,0.1727,0.1727,0.167,0.1666,0.1671,0.1623,0.162,0.1649,0.1647,0.1646,0.1645,0,0,0,0,0,0,0,0.1603,0.161,0.1684,0.169,0.1692,0.1668,0.1675,0.1643,0.1686,0.1715,0.1717,0.1718,0.167,0.1674,0.1669,0.1619,0.1649,0.1646,0.1644,0.1643,0.1606,0.1607,0,0,0,0,0,0,0.1604,0.1608,0.1683,0.1684,0.165,0.167,0.1677,0.1703,0.1689,0.1688,0.1718,0.172,0.1679,0.1673,0.1667,0.1692,0.1646,0.1643,0.1641,0.1605,0.1606,0.1607,0,0,0,0,0,0,0.1602,0.1612,0.1682,0.1645,0.1652,0.1672,0.17,0.1703,0.1724,0.1692,0.169,0.1737,0.1679,0.1671,0.1656,0.1687,0.1641,0.1638,0.1604,0.1606,0.1607,0.17,0,0,0,0,0,0,0.16,0.1611,0.1643,0.1646,0.1654,0.1695,0.1699,0.1703,0.1723,0.1726,0.1707,0.1701,0.1679,0.1661,0.1653,0.1682,0.1636,0.1603,0.1605,0.1606,0.1696,0.1705,0.1712,0,0,0,0,0,0.1596,0.1633,0.1646,0.1655,0.1695,0.1695,0.1698,0.1712,0.1723,0.1734,0.1724,0.1703,0.1667,0.1659,0.1649,0.1678,0.1602,0.1604,0.1606,0.1693,0.1703,0.1712,0,0,0,0,0,0,0.1603,0.1639,0.1653,0.17,0.1703,0.17,0.1716,0.1721,0.1724,0.1734,0.1704,0.1697,0.1699,0.1669,0.1661,0.1673,0.1635,0.1635,0.1704,0.1713,0.1721,0.1748,0.1633,0,0,0,0,0,0.162,0.1662,0.1672,0.1709,0.1713,0.1717,0.1725,0.1733,0.1729,0.1734,0.172,0.1707,0.1697,0.169,0.1671,0.1666,0.1675,0.1681,0.1689,0.1696,0.1712,0.1782,0.1799,0.1614,0.1614,0.1614,0,0,0.1632,0.1657,0.1682,0.1714,0.1719,0.1728,0.1724,0.1741,0.1757,0.1722,0.1741,0.173,0.1701,0.1708,0.1707,0.1689,0.1747,0.1699,0.1706,0.1718,0.1786,0.1804,0.1821,0.1616,0.1615,0.1615,0,0,0.165,0.1698,0.1725,0.1736,0.1751,0.1752,0.1759,0.1766,0.1781,0.1785,0.1779,0.1792,0.1757,0.1765,0.1758,0.1794,0.1788,0.1785,0.1849,0.1917,0.1933,0.1948,0.1962,0.1977,0.1791,0.1791,0.1791,0,0.1658,0.1707,0.1727,0.1746,0.1763,0.1764,0.1781,0.179,0.1794,0.1815,0.18,0.1816,0.179,0.1826,0.1844,0.1816,0.1838,0.1817,0.1931,0.1946,0.196,0.197,0.1986,0.1796,0.1795,0.1795,0.1794,0,0.1679,0.1728,0.1741,0.1775,0.1791,0.1809,0.1819,0.184,0.1853,0.1869,0.1911,0.1895,0.1914,0.1909,0.1883,0.1969,0.1946,0.1936,0.1915,0.1985,0.199,0.2005,0.1802,0.1801,0.1799,0.1798,0,0,0.1651,0.1742,0.1744,0.1777,0.1816,0.1823,0.186,0.1893,0.1929,0.195,0.2007,0.2011,0.2032,0.2026,0.2016,0.207,0.217,0.2052,0.2054,0.2079,0.2299,0.2145,0.2146,0.2198,0.2201,0.2204,0.2256,0,0.1653,0.171,0.1755,0.1802,0.1829,0.1867,0.19,0.1939,0.1968,0.202,0.2053,0.2091,0.2068,0.2091,0.2149,0.2169,0.2218,0.2155,0.2215,0.2216,0.2084,0.2162,0.1979,0.1999,0.2271,0.2273,0.2275,0,0.1657,0.1687,0.1749,0.1837,0.1851,0.1886,0.1953,0.1985,0.2063,0.2092,0.2162,0.2185,0.2269,0.2235,0.234,0.2308,0.2317,0.2325,0.2328,0.2166,0.2091,0.1976,0.2016,0.23,0.2298,0.2296,0.2294,0,0.1625,0.1698,0.1754,0.1779,0.1856,0.1902,0.1947,0.2018,0.2054,0.2157,0.22,0.2297,0.2343,0.2411,0.2414,0.2406,0.2507,0.2494,0.2359,0.2346,0.219,0.2157,0.2578,0.2578,0.2578,0.2577,0.2577,0,0.1635,0.1675,0.175,0.1771,0.1821,0.1896,0.1964,0.2017,0.2108,0.2161,0.2248,0.2299,0.2399,0.245,0.2464,0.2443,0.2552,0.2387,0.2367,0.2209,0.2179,0.2437,0.242,0.2579,0.2579,0.2579,0.2578,0,0.1626,0.1685,0.1719,0.1785,0.1819,0.185,0.1962,0.2005,0.2101,0.2179,0.2221,0.233,0.2409,0.2457,0.254,0.2473,0.2485,0.2441,0.2213,0.2165,0.2269,0.2256,0.2334,0.2329,0.2325,0.2322,0.2319,0,0.165,0.1666,0.17,0.1717,0.176,0.1827,0.1879,0.1984,0.2031,0.2177,0.2208,0.2319,0.2331,0.2371,0.2336,0.2322,0.2411,0.2099,0.2046,0.228,0.2254,0.2246,0.2239,0.1875,0.1869,0.1864,0.186,0,0.1636,0.1637,0.1653,0.1674,0.1722,0.1763,0.1854,0.1878,0.2001,0.2047,0.2115,0.214,0.2191,0.2083,0.2041,0.201,0.2091,0.1991,0.2347,0.194,0.1845,0.1819,0.1828,0.1815,0.182,0.1823,0.1825,0.1827,0.1612,0.1597,0.1607,0.163,0.1672,0.1697,0.1711,0.1766,0.1791,0.182,0.1926,0.1889,0.1904,0.175,0.1693,0.1666,0.1809,0.1715,0.1733,0.1756,0.1669,0.157,0.147,0.1472,0.1474,0.1476,0.1478,0,0.1563,0.1569,0.1576,0.158,0.1585,0.165,0.1689,0.1639,0.1601,0.162,0.1611,0.1453,0.1355,0.1427,0.1301,0.1247,0.1269,0.1206,0.1241,0.1284,0.1323,0.1217,0.0897,0.0896,0.0894,0.0893,0,0,0.1544,0.1515,0.1506,0.1487,0.1519,0.1506,0.151,0.1403,0.1366,0.1229,0.1195,0.1248,0.1329,0.1095,0.1051,0.0963,0.112,0.0917,0.1378,0.1461,0.1498,0.1604,0.1485,0,0,0,0,0]},{"header":{"parameterUnit":"m.s-1","parameterCategory":2,"la1":30.2991,"la2":30.254,"lo1":-89.0895,"lo2":-89.0444,"dy":0.0017,"dx":0.0017,"nx":28,"ny":28,"refTime":"2023-09-14T21:00:00:Z","depth":"2","parameterNumber":3,"parameterNumberName":"V-component_of_CURRENTS"},"data":[0,0,0,0,0,0,0,0,0,0,0,0,0,0,0,0,0,0,0,0,0,0,0,0,0,0,0,0,0,0,0,0,0,0,0,0,0,0,0,0,0,0,0,0,0,0,0,0,0,0,0,0,0,0,0,0,0,0,-0.0084,-0.0085,0,-0.0131,-0.0132,-0.0133,-0.0169,-0.0169,-0.0169,-0.0169,-0.0218,-0.022,-0.0221,0,0,0,0,0,0,0,0,0,0,0,0,0,-0.0018,-0.002,-0.0084,-0.0085,-0.0085,-0.0131,-0.0132,-0.0133,-0.0169,-0.0169,-0.0169,-0.0169,-0.0218,-0.022,-0.0221,0,0,0,0,0,0,0,0,0,0,0,0,0,-0.0058,-0.002,-0.0084,-0.0106,-0.0108,-0.0131,-0.0132,-0.0133,-0.0169,-0.0169,-0.0169,-0.0169,-0.0218,-0.0219,-0.0221,-0.0233,0,0,-0.0227,-0.0228,0,0,0,0,0,0,0,0,-0.0055,-0.0061,-0.0102,-0.0104,-0.0107,-0.0141,-0.0127,-0.0166,-0.0169,-0.0149,-0.0169,-0.0169,-0.019,-0.0195,-0.0209,-0.0236,-0.0238,-0.0228,-0.0229,-0.023,-0.023,0,0,0,0,0,0,0,-0.0053,-0.0059,-0.0107,-0.0102,-0.0105,-0.011,-0.0116,-0.0135,-0.0172,-0.0151,-0.0153,-0.0152,-0.0192,-0.0207,-0.021,-0.0239,-0.0228,-0.0229,-0.0231,-0.0231,-0.0274,-0.0274,0,0,0,0,0,0,-0.004,-0.0056,-0.0105,-0.0108,-0.0076,-0.0111,-0.0118,-0.0133,-0.0172,-0.0177,-0.0152,-0.0154,-0.0203,-0.0208,-0.0212,-0.0211,-0.023,-0.0232,-0.0233,-0.0274,-0.0274,-0.0274,0,0,0,0,0,0,-0.0039,-0.0045,-0.0103,-0.0079,-0.0086,-0.0112,-0.0128,-0.0134,-0.0149,-0.0172,-0.0178,-0.0162,-0.0203,-0.0209,-0.0222,-0.0213,-0.0232,-0.0234,-0.0274,-0.0274,-0.0274,-0.022,0,0,0,0,0,0,-0.0037,-0.0045,-0.0063,-0.0079,-0.0087,-0.0116,-0.0128,-0.0134,-0.0147,-0.0149,-0.0182,-0.0187,-0.0204,-0.0219,-0.0224,-0.0217,-0.0236,-0.0274,-0.0274,-0.0274,-0.0222,-0.0218,-0.0215,0,0,0,0,0,-0.0035,-0.0054,-0.0064,-0.007,-0.0108,-0.0116,-0.0122,-0.0141,-0.0147,-0.0155,-0.017,-0.0186,-0.0222,-0.022,-0.0226,-0.0219,-0.0274,-0.0274,-0.0274,-0.0223,-0.0219,-0.0215,0,0,0,0,0,0,-0.0045,-0.006,-0.0071,-0.0098,-0.0105,-0.0121,-0.0129,-0.014,-0.016,-0.0161,-0.0184,-0.019,-0.0199,-0.0219,-0.0216,-0.0233,-0.0251,-0.0253,-0.0211,-0.0207,-0.0203,-0.0188,-0.0237,0,0,0,0,0,-0.0052,-0.0067,-0.0079,-0.01,-0.01,-0.0114,-0.0123,-0.0132,-0.0144,-0.0154,-0.0173,-0.0192,-0.0205,-0.0212,-0.0232,-0.0239,-0.025,-0.024,-0.0236,-0.0233,-0.0226,-0.0232,-0.0227,-0.0274,-0.0274,-0.0274,0,0,-0.0062,-0.0072,-0.0082,-0.0102,-0.0108,-0.0101,-0.0121,-0.0126,-0.0122,-0.0155,-0.0161,-0.0182,-0.0205,-0.0212,-0.0218,-0.0225,-0.0227,-0.0233,-0.023,-0.0224,-0.0231,-0.0226,-0.0222,-0.0274,-0.0274,-0.0274,0,0,-0.0062,-0.0092,-0.009,-0.0094,-0.0097,-0.01,-0.0097,-0.0109,-0.0117,-0.0124,-0.0143,-0.0155,-0.0182,-0.0191,-0.0199,-0.0189,-0.021,-0.02,-0.0166,-0.0172,-0.0168,-0.0164,-0.0172,-0.0169,-0.0196,-0.0196,-0.0196,0,-0.0067,-0.0073,-0.0091,-0.0083,-0.008,-0.0092,-0.0078,-0.0086,-0.0103,-0.0102,-0.0119,-0.0146,-0.0169,-0.0164,-0.0161,-0.0179,-0.0187,-0.0177,-0.0165,-0.0162,-0.0159,-0.0168,-0.0166,-0.0193,-0.0193,-0.0194,-0.0194,0,-0.0052,-0.0061,-0.0056,-0.0047,-0.005,-0.0042,-0.0043,-0.0045,-0.0054,-0.0061,-0.0067,-0.0097,-0.0111,-0.0122,-0.0138,-0.0129,-0.0143,-0.016,-0.0171,-0.0151,-0.0162,-0.0161,-0.0189,-0.019,-0.0191,-0.0192,0,0,-0.0037,-0.0042,-0.0039,-0.0031,-0.0029,-0.0024,-0.0011,-0.0,0.0017,-0.001,0.0008,-0.0024,-0.0043,-0.0054,-0.0078,-0.0083,-0.0075,-0.0109,-0.0111,-0.0107,-0.0086,-0.0097,-0.0097,-0.0087,-0.0087,-0.0087,-0.0101,0,-0.0009,0.001,0.0001,0.0024,0.0038,0.003,0.0044,0.0046,0.0047,0.0059,0.0032,0.0035,-0.0015,-0.0014,-0.003,-0.0053,-0.007,-0.007,-0.0114,-0.0116,-0.0119,-0.0095,-0.0088,-0.01,-0.01,-0.01,-0.01,0,0.0017,0.0032,0.0054,0.0064,0.0071,0.0081,0.0108,0.012,0.0132,0.013,0.0124,0.0106,0.01,0.0052,0.0013,0.0017,-0.0035,-0.0063,-0.0065,-0.0091,-0.0124,-0.0121,-0.0098,-0.0098,-0.0098,-0.0098,-0.0098,0,0.0045,0.0064,0.0084,0.0088,0.0104,0.0113,0.0126,0.014,0.0164,0.0183,0.0209,0.0181,0.0185,0.0126,0.006,0.004,0.0019,-0.0019,-0.0084,-0.0085,-0.0096,-0.0099,-0.0062,-0.0062,-0.0062,-0.0062,-0.0062,0,0.0072,0.009,0.0097,0.0112,0.0146,0.0142,0.0182,0.0191,0.0223,0.0281,0.0248,0.0292,0.0205,0.0182,0.0098,0.0025,0.0043,-0.0068,-0.0085,-0.0078,-0.008,-0.0095,-0.0098,-0.0062,-0.0062,-0.0062,-0.0062,0,0.0085,0.0092,0.0122,0.0148,0.0156,0.0179,0.0216,0.0256,0.0279,0.036,0.0376,0.0381,0.0369,0.0275,0.0194,0.0086,0.0011,-0.0032,-0.0018,-0.0033,-0.0104,-0.0105,-0.01,-0.0101,-0.0101,-0.0101,-0.0102,0,0.0086,0.0104,0.0145,0.0172,0.0183,0.0216,0.0252,0.0278,0.0337,0.0432,0.0487,0.0495,0.0524,0.0393,0.0223,0.0076,0.0043,-0.0044,-0.0091,-0.0089,-0.0105,-0.0106,-0.0106,-0.0087,-0.0087,-0.0087,-0.0087,0,0.0104,0.0118,0.0147,0.0207,0.0247,0.0301,0.0358,0.0416,0.0489,0.0579,0.0705,0.0736,0.0605,0.0469,0.0237,0.0125,-0.0018,-0.0052,-0.0036,-0.0079,-0.0077,-0.0094,-0.0094,-0.0088,-0.0088,-0.0088,-0.0088,-0.0088,0.0114,0.0141,0.0188,0.0246,0.0304,0.0402,0.0473,0.0567,0.0697,0.083,0.0838,0.0867,0.0671,0.0383,0.0216,0.001,-0.0006,-0.0106,-0.0105,-0.0105,-0.0101,-0.01,-0.0114,-0.0114,-0.0114,-0.0115,-0.0115,0,0.0134,0.0173,0.0229,0.0321,0.0412,0.0427,0.0564,0.0657,0.0847,0.0902,0.0984,0.0809,0.064,0.0433,0.0127,-0.0061,-0.008,-0.0113,-0.0099,-0.0099,-0.0098,-0.0093,-0.0105,-0.0105,-0.0105,-0.0105,0,0,0.015,0.0211,0.0252,0.0408,0.0477,0.0615,0.0708,0.0848,0.092,0.0995,0.0976,0.0896,0.0659,0.0442,0.0212,0.0059,0.002,0.0024,0.0028,0.007,0.0073,-0.0091,-0.0083,0,0,0,0,0]}],[{"header":{"parameterUnit":"m.s-1","parameterCategory":2,"la1":30.2991,"la2":30.254,"lo1":-89.0895,"lo2":-89.0444,"dy":0.0017,"dx":0.0017,"nx":28,"ny":28,"refTime":"2023-09-14T21:00:00:Z","depth":"4","parameterNumber":2,"parameterNumberName":"U-component_of_CURRENTS"},"data":[0,0,0,0,0,0,0,0,0,0,0,0,0,0,0,0,0,0,0,0,0,0,0,0,0,0,0,0,0,0,0,0,0,0,0,0,0,0,0,0,0,0,0,0,0,0,0,0,0,0,0,0,0,0,0,0,0,0,0.0422,0.0422,0,0.0405,0.0404,0.0403,0.0384,0.0385,0.0385,0.0386,0.0379,0.0379,0.0378,0,0,0,0,0,0,0,0,0,0,0,0,0,0.0449,0.0448,0.0422,0.0422,0.0423,0.0405,0.0404,0.0403,0.0384,0.0385,0.0385,0.0386,0.0379,0.0379,0.0378,0,0,0,0,0,0,0,0,0,0,0,0,0,0.0427,0.0447,0.0422,0.0418,0.0418,0.0405,0.0404,0.0402,0.0384,0.0385,0.0386,0.0386,0.038,0.0379,0.0378,0.0356,0,0,0.0375,0.0374,0,0,0,0,0,0,0,0,0.0428,0.0424,0.0418,0.0418,0.0418,0.0405,0.0411,0.039,0.0384,0.0388,0.0386,0.0387,0.0394,0.0392,0.0374,0.0355,0.0355,0.0375,0.0374,0.0374,0.0373,0,0,0,0,0,0,0,0.0429,0.0425,0.0406,0.0419,0.0419,0.0421,0.0418,0.0406,0.038,0.0387,0.0388,0.04,0.0393,0.0375,0.0374,0.0355,0.0375,0.0374,0.0373,0.0373,0.043,0.0432,0,0,0,0,0,0,0.0447,0.0426,0.0407,0.0406,0.0435,0.0421,0.0417,0.0401,0.038,0.038,0.0399,0.0399,0.0376,0.0375,0.0374,0.0423,0.0374,0.0373,0.0372,0.0428,0.0431,0.0433,0,0,0,0,0,0,0.0447,0.0444,0.0408,0.0425,0.0422,0.042,0.0403,0.0401,0.0406,0.039,0.0389,0.0411,0.0377,0.0375,0.0402,0.042,0.0372,0.0371,0.0426,0.0429,0.0432,0.0473,0,0,0,0,0,0,0.0447,0.0444,0.044,0.0425,0.0422,0.0412,0.0403,0.04,0.0415,0.0415,0.04,0.0398,0.0378,0.0404,0.0401,0.0418,0.037,0.0423,0.0427,0.0431,0.0469,0.0477,0.0484,0,0,0,0,0,0.0448,0.0439,0.0439,0.0438,0.0414,0.0413,0.041,0.0407,0.0416,0.0415,0.0426,0.04,0.0427,0.0404,0.0401,0.0418,0.0421,0.0426,0.0431,0.0466,0.0476,0.0484,0,0,0,0,0,0,0.0442,0.0437,0.0436,0.0424,0.0428,0.0414,0.0422,0.0422,0.0425,0.0438,0.042,0.0419,0.0444,0.0438,0.0413,0.0452,0.0423,0.0427,0.0451,0.046,0.0467,0.0477,0.037,0,0,0,0,0,0.0443,0.0428,0.0435,0.0421,0.0437,0.0435,0.0438,0.0438,0.0443,0.0445,0.044,0.0449,0.0456,0.0466,0.0461,0.0482,0.048,0.0497,0.0505,0.0511,0.0521,0.0547,0.0557,0.0449,0.0449,0.0449,0,0,0.0426,0.0431,0.0416,0.042,0.0427,0.044,0.0436,0.0451,0.0465,0.0445,0.0468,0.0468,0.0467,0.0488,0.0501,0.0489,0.0541,0.0517,0.0522,0.0529,0.0553,0.0563,0.0572,0.0452,0.0452,0.0451,0,0,0.0413,0.0409,0.0411,0.0419,0.0448,0.0453,0.0468,0.0477,0.0491,0.0513,0.051,0.0537,0.0536,0.0546,0.055,0.0605,0.0574,0.0603,0.0652,0.0677,0.0685,0.0693,0.0697,0.0704,0.0614,0.0614,0.0614,0,0.0415,0.0405,0.0411,0.0429,0.0441,0.0467,0.0483,0.0498,0.0511,0.0538,0.0533,0.0561,0.0565,0.0598,0.0626,0.062,0.0621,0.0609,0.0685,0.0692,0.0699,0.0701,0.0709,0.0617,0.0616,0.0616,0.0616,0,0.0403,0.0408,0.0419,0.0444,0.0452,0.0473,0.0505,0.0529,0.0558,0.058,0.0624,0.0629,0.0653,0.0658,0.0661,0.0715,0.0694,0.0681,0.0654,0.0712,0.0711,0.0718,0.062,0.0619,0.0619,0.0618,0,0,0.0396,0.0412,0.042,0.0429,0.0468,0.0471,0.0516,0.0566,0.0606,0.0633,0.0677,0.071,0.073,0.0739,0.0739,0.0769,0.0825,0.0757,0.0757,0.0748,0.0867,0.0802,0.0803,0.0821,0.0823,0.0824,0.0843,0,0.0407,0.0428,0.0434,0.0452,0.047,0.0498,0.054,0.0584,0.0624,0.0676,0.0718,0.076,0.0757,0.0775,0.0808,0.0823,0.0848,0.082,0.0824,0.0824,0.0749,0.0811,0.083,0.0848,0.085,0.0851,0.0852,0,0.0405,0.0425,0.0444,0.0468,0.0485,0.0503,0.0563,0.0601,0.069,0.0727,0.0776,0.0804,0.0872,0.085,0.0906,0.0888,0.0892,0.0891,0.0891,0.0822,0.0773,0.0782,0.0864,0.0863,0.0862,0.0861,0.0861,0,0.0391,0.0426,0.0441,0.0445,0.0489,0.0515,0.0557,0.0631,0.0679,0.0768,0.0809,0.087,0.092,0.0934,0.0958,0.094,0.0997,0.0967,0.0902,0.0896,0.0926,0.0918,0.1,0.1,0.1,0.1,0.1,0,0.0385,0.0395,0.0441,0.0445,0.049,0.0521,0.0571,0.0632,0.0717,0.0774,0.0848,0.0883,0.0949,0.0985,0.0979,0.0971,0.1019,0.0923,0.0907,0.0942,0.0936,0.093,0.0921,0.1001,0.1001,0.1001,0.1,0,0.0341,0.0374,0.0388,0.0448,0.0477,0.0505,0.0579,0.0619,0.0717,0.0783,0.0822,0.0931,0.0984,0.1013,0.1046,0.1004,0.0991,0.0969,0.1009,0.0991,0.0862,0.0856,0.0896,0.0895,0.0893,0.0892,0.089,0,0.0312,0.0322,0.038,0.0403,0.0432,0.0481,0.0529,0.062,0.0657,0.0786,0.0823,0.0921,0.0969,0.0979,0.1006,0.099,0.0969,0.095,0.0908,0.0877,0.0857,0.0853,0.0849,0.0888,0.0887,0.0887,0.0887,0,0.026,0.0289,0.0302,0.0364,0.0406,0.0434,0.0506,0.0535,0.0638,0.0722,0.0807,0.0846,0.0908,0.094,0.0952,0.0927,0.0958,0.0933,0.0935,0.0895,0.0867,0.0848,0.0846,0.0881,0.0882,0.0882,0.0883,0,0.0219,0.0221,0.0261,0.031,0.0351,0.0388,0.0425,0.0487,0.0547,0.0701,0.0714,0.0815,0.09,0.0906,0.0901,0.0896,0.0866,0.0815,0.0823,0.0829,0.0797,0.0751,0.0729,0,0,0,0,0,0.0178,0.0186,0.0215,0.0259,0.0296,0.0335,0.0411,0.0452,0.0549,0.0593,0.0659,0.0707,0.0751,0.0803,0.0781,0.0841,0.085,0.0807,0.079,0.085,0.0856,0.0824,0,0,0,0,0,0,0.0145,0.0163,0.019,0.0206,0.0235,0.0277,0.0323,0.0397,0.0429,0.0536,0.0577,0.0645,0.0708,0.076,0.0765,0.0773,0.074,0.0861,0.0859,0.0846,0.0852,0.0857,0.0826,0,0,0,0,0]},{"header":{"parameterUnit":"m.s-1","parameterCategory":2,"la1":30.2991,"la2":30.254,"lo1":-89.0895,"lo2":-89.0444,"dy":0.0017,"dx":0.0017,"nx":28,"ny":28,"refTime":"2023-09-14T21:00:00:Z","depth":"4","parameterNumber":3,"parameterNumberName":"V-component_of_CURRENTS"},"data":[0,0,0,0,0,0,0,0,0,0,0,0,0,0,0,0,0,0,0,0,0,0,0,0,0,0,0,0,0,0,0,0,0,0,0,0,0,0,0,0,0,0,0,0,0,0,0,0,0,0,0,0,0,0,0,0,0,0,0.0299,0.03,0,0.0352,0.0352,0.0353,0.0388,0.0388,0.0388,0.0388,0.0419,0.042,0.042,0,0,0,0,0,0,0,0,0,0,0,0,0,0.0214,0.0215,0.0299,0.03,0.0301,0.0352,0.0353,0.0353,0.0388,0.0388,0.0388,0.0388,0.0419,0.042,0.042,0,0,0,0,0,0,0,0,0,0,0,0,0,0.0257,0.0216,0.0299,0.0324,0.0327,0.0352,0.0353,0.0353,0.0387,0.0388,0.0388,0.0389,0.0419,0.042,0.042,0.0418,0,0,0.0423,0.0423,0,0,0,0,0,0,0,0,0.0254,0.026,0.032,0.0322,0.0326,0.0364,0.0334,0.0374,0.0387,0.0364,0.0388,0.0389,0.0399,0.0401,0.041,0.042,0.0421,0.0423,0.0424,0.0424,0.0424,0,0,0,0,0,0,0,0.0251,0.0258,0.032,0.032,0.0324,0.0328,0.0334,0.0342,0.0378,0.0366,0.0369,0.0375,0.04,0.0409,0.0411,0.0421,0.0423,0.0424,0.0424,0.0425,0.0439,0.0439,0,0,0,0,0,0,0.0246,0.0255,0.0318,0.0321,0.029,0.0329,0.0336,0.0351,0.0378,0.0383,0.0375,0.0377,0.0407,0.041,0.0412,0.0417,0.0424,0.0425,0.0425,0.0439,0.0439,0.0439,0,0,0,0,0,0,0.0244,0.0251,0.0316,0.0289,0.0298,0.033,0.0346,0.0352,0.037,0.0385,0.039,0.0389,0.0408,0.0411,0.0421,0.0418,0.0425,0.0426,0.044,0.0439,0.0439,0.0423,0,0,0,0,0,0,0.0242,0.0251,0.0265,0.0289,0.0299,0.0331,0.0346,0.0353,0.0373,0.0376,0.0398,0.0401,0.0408,0.042,0.0422,0.042,0.0427,0.044,0.0439,0.0439,0.0424,0.0422,0.0421,0,0,0,0,0,0.0238,0.0261,0.0266,0.0273,0.0316,0.0331,0.0336,0.036,0.0373,0.0379,0.0393,0.0401,0.042,0.042,0.0423,0.0421,0.044,0.044,0.0439,0.0425,0.0423,0.0421,0,0,0,0,0,0,0.0235,0.0268,0.0273,0.0305,0.0314,0.0337,0.0352,0.0363,0.0381,0.0388,0.0401,0.0404,0.0413,0.0418,0.0419,0.0424,0.043,0.0431,0.0418,0.0417,0.0415,0.0401,0.0428,0,0,0,0,0,0.0239,0.0267,0.0281,0.0308,0.0311,0.033,0.0342,0.0354,0.0371,0.038,0.0396,0.0408,0.0412,0.0416,0.0425,0.0427,0.0401,0.0427,0.0425,0.0424,0.0415,0.036,0.0352,0.0438,0.0438,0.0438,0,0,0.0245,0.0268,0.0283,0.0309,0.032,0.0331,0.0339,0.0357,0.0365,0.0379,0.0401,0.0408,0.0412,0.0416,0.042,0.0421,0.0389,0.0424,0.0423,0.0413,0.0358,0.0349,0.0342,0.0438,0.0438,0.0438,0,0,0.0262,0.0287,0.0305,0.0312,0.0328,0.0341,0.0345,0.0366,0.0371,0.0386,0.0394,0.0392,0.0416,0.0406,0.0406,0.04,0.0385,0.0412,0.0392,0.0339,0.033,0.0323,0.0285,0.0275,0.0409,0.0409,0.0409,0,0.0261,0.0293,0.031,0.032,0.0331,0.0345,0.0352,0.0359,0.0382,0.0377,0.0392,0.0397,0.0405,0.0384,0.0386,0.0395,0.0369,0.0398,0.0334,0.0326,0.0319,0.0282,0.0271,0.0408,0.0408,0.0408,0.0408,0,0.0282,0.0305,0.0315,0.0336,0.0346,0.0359,0.0363,0.0371,0.0385,0.0386,0.0374,0.0375,0.0372,0.0375,0.0383,0.0337,0.0338,0.0339,0.0334,0.0309,0.0273,0.0261,0.0407,0.0407,0.0407,0.0407,0,0,0.0282,0.032,0.0323,0.0332,0.0355,0.0365,0.037,0.0369,0.037,0.0371,0.0355,0.035,0.0343,0.034,0.0337,0.0294,0.0227,0.0297,0.0294,0.0253,0.0115,0.0138,0.0127,0.0215,0.0213,0.0211,0.0112,0,0.0287,0.0314,0.0332,0.0354,0.0365,0.0374,0.038,0.0379,0.0379,0.0369,0.0334,0.0331,0.0329,0.033,0.0279,0.0248,0.0194,0.0254,0.0152,0.0149,0.0166,0.0113,0.0204,0.0104,0.0101,0.0099,0.0097,0,0.0295,0.0316,0.0338,0.0363,0.0367,0.0385,0.0393,0.0398,0.0375,0.0369,0.0336,0.0319,0.0261,0.0267,0.0158,0.0197,0.015,0.0116,0.0112,0.0127,0.0149,0.0133,0.0075,0.0077,0.0079,0.008,0.0082,0,0.0293,0.0319,0.0342,0.035,0.0379,0.0388,0.0406,0.0402,0.0404,0.0368,0.0364,0.0287,0.0264,0.0176,0.0116,0.013,-0.0004,0.0005,-0.0029,-0.0027,-0.001,-0.0001,-0.0095,-0.0095,-0.0095,-0.0095,-0.0095,0,0.0299,0.0316,0.0346,0.0362,0.0386,0.0399,0.042,0.0421,0.0416,0.0412,0.0367,0.0338,0.024,0.0162,0.0093,-0.0002,-0.003,-0.0051,-0.0061,-0.0011,-0.0001,-0.0018,-0.0008,-0.0099,-0.0098,-0.0097,-0.0096,0,0.03,0.0321,0.0347,0.0379,0.0392,0.0412,0.0453,0.0465,0.0457,0.0447,0.0436,0.0367,0.0265,0.0166,0.0031,-0.0016,-0.0115,-0.0142,-0.0078,-0.008,-0.0099,-0.0088,-0.0206,-0.0207,-0.0207,-0.0207,-0.0207,0,0.0308,0.0323,0.0364,0.0387,0.0409,0.0443,0.0474,0.0489,0.05,0.0461,0.0453,0.0361,0.0301,0.0122,0.0022,-0.0129,-0.0137,-0.0186,-0.0155,-0.0118,-0.0116,-0.0105,-0.0094,-0.0207,-0.0208,-0.0208,-0.0208,0,0.0316,0.0333,0.0359,0.0406,0.0446,0.0479,0.0518,0.0526,0.0528,0.0521,0.0456,0.0363,0.0251,0.0119,0.001,-0.0094,-0.0155,-0.0188,-0.0189,-0.016,-0.0121,-0.0116,-0.0105,-0.0208,-0.0208,-0.0208,-0.0208,0,0.0325,0.0341,0.0378,0.0417,0.0462,0.0493,0.0517,0.0526,0.0533,0.0495,0.0467,0.0348,0.0281,0.0136,0.0029,-0.0066,-0.0087,-0.0107,-0.0112,-0.0112,-0.0044,0.0023,-0.005,0,0,0,0,0,0.0325,0.0345,0.0385,0.0424,0.0469,0.0495,0.0533,0.0551,0.0549,0.0511,0.0491,0.0384,0.0225,0.0154,0.0059,0.0024,-0.0103,-0.0088,-0.0128,-0.0212,-0.0212,-0.0145,0,0,0,0,0,0,0.0324,0.0362,0.0379,0.042,0.0448,0.0497,0.0522,0.0529,0.0507,0.0488,0.0404,0.0368,0.0213,0.0272,0.0056,0.0027,-0.0007,-0.0161,-0.0162,-0.0213,-0.0212,-0.0211,-0.0142,0,0,0,0,0]}]]